Location: Cahas Mountain Overlook
(37.0833°N, 80.1000°W)
Time: 19:57:18
(UTC-04:00)

Explorer 7 - Pass Details

Date: 13 February 2026
Orbit: 430 x 541 km, 50.2° (Epoch: 13 March)

Event Time Altitude Azimuth Distance (km) Brightness Sun altitude
Rises 23:12:32 0° 308° (NW) 2,622 - -59.8°
Reaches altitude 10° 23:14:42 10° 308° (NW) 1,751 - -60.0°
Maximum altitude 23:18:42 88° 226° (SW) 534 - -60.6°
Drops below altitude 10° 23:22:48 10° 130° (SE) 1,791 - -61.1°
Sets 23:25:03 0° 130° (SE) 2,688 - -61.4°
